Home > Weather > Montes Claros > Past weeks

Flag for Brazil Past Weather in Montes Claros, Minas Gerais, Brazil — Yesterday and Last 2 Weeks

Now
75 °F

Sunny.


Feels Like: 78 °F
Forecast: 62 / 87 °F
Wind: 2 mph from Northeast

Location: Belo Horizonte Airport

Current Time: May 30, 2016 at 11:46:14 AM

Latest Report: May 30, 2016 at 11:00 AM


Visibility: 10 mi

Pressure: 30.09 "Hg (27.98 "Hg at 632m altitude)

Humidity: 47%

Dew Point: 54 °F

Location of Montes ClarosLocation

Past Weather in Montes Claros — Graph

°F

Montes Claros Temperature Yesterday

Maximum temperature yesterday: 79 °F (at 3:00 PM)
Minimum temperature yesterday: 55 °F (at 5:00 AM)
Average temperature yesterday: 65 °F

High & Low Weather Summary for the Past Weeks

 TemperatureHumidityPressure
High84 °F (May 18, 2:00 PM)100% (May 17, 6:00 AM)30.33 "Hg (May 17, 6:00 AM)
Low55 °F (May 29, 5:00 AM)34% (May 29, 3:00 PM)30.01 "Hg (May 17, 3:00 PM)
Average68 °F72%30.17 "Hg
* Reported May 15 10:00 AM — May 30 10:00 AM, Montes Claros, Weather by CustomWeather, © 2016

Note: Actual official high and low records may vary slightly from our data, if they occured in-between our weather recording intervals... More about our weather records

Advertising

Montes Claros Weather History for the Previous 24 Hours

Scroll right to see more
 ConditionsComfort  
Time TempWeatherWind HumidityBarometerVisibility
10:00 AM
Mon, May 30
72 °FSunny.6 mph61%30.12 "Hg10 mi
9:00 AM64 °FSunny.3 mph78%30.12 "Hg10 mi
8:00 AM59 °FSunny.2 mph82%30.15 "Hg10 mi
7:00 AM55 °FSunny.2 mph94%30.12 "Hg10 mi
6:00 AM57 °FClear.2 mph88%30.12 "Hg10 mi
5:00 AM55 °FClear.3 mph88%30.09 "Hg10 mi
4:00 AM57 °FClear.2 mph82%30.09 "Hg10 mi
3:00 AM57 °FClear.2 mph88%30.09 "Hg10 mi
2:00 AM57 °FClear.2 mph88%30.12 "Hg10 mi
1:00 AM59 °FClear.2 mph82%30.12 "Hg10 mi
12:00 AM61 °FClear.2 mph72%30.12 "Hg10 mi
11:00 PM
Sun, May 29
63 °FClear.3 mph68%30.12 "Hg10 mi
10:00 PM64 °FClear.2 mph64%30.15 "Hg5 mi
9:00 PM66 °FClear.No wind60%30.15 "Hg10 mi
8:00 PM66 °FClear.2 mph60%30.15 "Hg10 mi
7:00 PM68 °FClear.2 mph60%30.12 "Hg10 mi
6:00 PM72 °FClear.No wind50%30.12 "Hg10 mi
5:00 PM73 °FPassing clouds.5 mph47%30.12 "HgN/A
4:00 PM77 °FPassing clouds.5 mph42%30.09 "HgN/A
3:00 PM79 °FScattered clouds.5 mph34%30.12 "HgN/A
2:00 PM75 °FScattered clouds.6 mph44%30.12 "HgN/A
1:00 PM73 °FScattered clouds.5 mph47%30.15 "HgN/A
12:00 PM75 °FScattered clouds.5 mph47%30.18 "HgN/A
11:00 AM70 °FScattered clouds.7 mph57%30.21 "HgN/A
Weather by CustomWeather, © 2016

See weather overviewHow to use our weather pages